Regional Weather Roundup
Issued by NWS

Home | Current Version | Previous Version | Text Only | Print | Product List | Glossary Off
Versions: 1 2 3 4 5 6 7 8 9 10 11 12 13 14 15 16 17 18 19 20 21 22 23 24 25 26 27

000
ASUS45 KBOU 311707
RWRCO

WEATHER ROUNDUP FOR COLORADO
NATIONAL WEATHER SERVICE DENVER/BOULDER CO
1100 AM MDT WED AUG 31 2016

NOTE: "FAIR" INDICATES FEW OR NO CLOUDS BELOW 12000 FEET WITH NO
SIGNIFICANT WEATHER AND/OR OBSTRUCTIONS TO VISIBILITY.

COZ001>005-013-030-031-311800-
...NORTHWEST COLORADO...

CITY           SKY/WX    TMP DP  RH WIND       PRES   REMARKS
CRAIG          FAIR      78  39  24 VRB5      30.29F
HAYDEN         FAIR      72  39  30 E5        30.31F
MEEKER         FAIR      76  42  29 VRB3      30.29F
MOUNT WERNER   NOT AVBL
STEAMBOAT SPGS FAIR      69  41  36 CALM      30.34S
WALDEN         FAIR      61  39  44 CALM      30.44F
$$

COZ006>008-011-311800-
...WEST CENTRAL VALLEYS...

CITY           SKY/WX    TMP DP  RH WIND       PRES   REMARKS
GRAND JUNCTION FAIR      78  44  29 SE7       30.21F
MONTROSE       FAIR      76  47  35 CALM      30.29F
EAGLE          SUNNY     66  43  42 CALM      30.37F
RIFLE          FAIR      74  47  38 VRB3      30.27F
DELTA          NOT AVBL
NUCLA          NOT AVBL
$$

COZ017>023-064>068-311800-
...SOUTHWEST COLORADO...

CITY           SKY/WX    TMP DP  RH WIND       PRES   REMARKS
DURANGO        FAIR      69  46  43 W6        30.37F
CORTEZ         FAIR      74  50  42 CALM      30.31F
PAGOSA SPRINGS FAIR      67  44  41 S6        30.43F
TELLURIDE      NOT AVBL
WOLF CREEK PAS PTSUNNY   45  41  87 SW8       30.71S
$$

COZ009-010-012-014-032>034-037-058>063-311800-
...CENTRAL COLORADO...

CITY           SKY/WX    TMP DP  RH WIND       PRES   REMARKS
ASPEN          FAIR      68  45  43 N7        30.40F
BUENA VISTA    FAIR      62  45  53 SE3       30.44F
COPPER MTN     FAIR      55  32  41 NW15G21   30.69S
BERTHOUD PASS  FAIR      46  34  61 N7G17     30.72R
COTTONWOOD PAS FAIR      61  43  51 E5        30.55S
GUNNISON       FAIR      63  45  51 CALM      30.46F
KREMMLING      FAIR      61  37  41 CALM      30.42F
LEADVILLE      FAIR      59  39  47 VRB3      30.53S
MONARCH PASS   FAIR      50  37  62 SW9       30.79S
SALIDA         FAIR      65  45  48 CALM      30.48F
SUNLIGHT       FAIR      59  45  58 E3        30.64S
WILKERSON PASS FAIR      52  41  66 CALM      30.67S
$$

COZ069>075-311800-
...SAN LUIS VALLEY/SANGRE DE CRISTO MOUNTAINS...

CITY           SKY/WX    TMP DP  RH WIND       PRES   REMARKS
ALAMOSA        FAIR      65  47  52 VRB5      30.42F
LA VETA PASS   FAIR      55  41  58 MISG      30.58S
SAGUACHE       FAIR      64  46  52 SE6       30.45S
$$

COZ035-036-038>040-311800-
...NORTHERN COLORADO FRONT RANGE...

CITY           SKY/WX    TMP DP  RH WIND       PRES   REMARKS
DENVER INTL AP FAIR      64  54  69 VRB5      30.32F
DMNS CITY PARK   N/A     66  55  69 N9        30.32S
AURORA         MOSUNNY   67  56  68 N5        30.33S
FRONT RANGE AP MOSUNNY   64  55  72 NE6       30.33F
ERIE MUNI ARPT CLOUDY    63  56  79 NE6       30.32S
BOULDER MUN AP CLOUDY    66  55  68 NE6       30.32R
CENTENNIAL     FAIR      67  54  63 VRB6      30.33S
BROOMFIELD     PTSUNNY   66  55  68 N6        30.34S
FORT COLLINS   PTSUNNY   68  57  68 E9        30.30F
LONGMONT       CLOUDY    65  57  74 E7        30.33R
$$

COZ041-046-047-076>085-087-088-311800-
...PIKES PEAK/PALMER DIVIDE AND SOUTHERN FOOTHILLS...

CITY           SKY/WX    TMP DP  RH WIND       PRES   REMARKS
COLO. SPRINGS  FAIR      69  53  56 SE9       30.36S
A. F. ACADEMY  FAIR      68  51  54 S9        30.35F
SCHRIEVER AFB  NOT AVBL
ELLICOTT       NOT AVBL
FALCON         FAIR      67  52  58 S7        30.40S
FORT CARSON    FAIR      69  54  60 S7        30.33S
LIMON          FAIR      72  53  51 VRB3      30.32S
MONUMENT HILL  FAIR      64  50  59 E3        30.40S
TRINIDAD       FAIR      73  50  44 VRB5      30.32F
$$

COZ042>045-048>051-090-091-311800-
...NORTHEAST COLORADO...

CITY           SKY/WX    TMP DP  RH WIND       PRES   REMARKS
GREELEY ARPT   PTSUNNY   68  57  68 S9        30.30F
AKRON          FAIR      71  57  61 VRB7      30.29F
BURLINGTON     PTSUNNY   74  59  59 S6        30.27F
WRAY           CLOUDY    72  63  73 E7        30.27
STERLING       CLOUDY    70  61  73 E7        30.26S
HOLYOKE        CLOUDY    68  64  88 S5        30.28S
FORT MORGAN    PTSUNNY   68  58  69 E10       30.30S
$$

COZ086-089-092>099-311800-
...SOUTHEAST COLORADO...

CITY           SKY/WX    TMP DP  RH WIND       PRES   REMARKS
PUEBLO         FAIR      73  54  51 VRB3      30.27F
LA JUNTA       FAIR      73  58  59 SE3       30.26S
LAMAR          FAIR      77  60  55 CALM      30.22F
SPRINGFIELD      N/A     73  60  63 SE7       30.26F
$$




USA.gov is the U.S. government's official web portal to all federal, state and local government web resources and services.